Location: Ailly
(50.0793°N, 1.9944°E)
Time: 05:57:39
(UTC+00:00)

Cosmos 2084 Rocket - Pass Details

Date: 15 January 2026
Orbit: 541 x 571 km, 62.8° (Epoch: 17 February)

Event Time Altitude Azimuth Distance (km) Brightness Sun altitude
Exits shadow 05:58:02 20° 333° (NNW) 1,346 4.9 -16.6°
Maximum altitude 06:00:39 45° 37° (NE) 783 4.2 -16.1°
Drops below altitude 10° 06:04:43 10° 112° (ESE) 1,874 7.4 -15.5°
Sets 06:07:02 0° 118° (ESE) 2,770 8.5 -15.2°
